Winona, MN

1:41 AM CDT on May 27, 2017 (GMT -0500)
Winona Municipal-Conrad

Weather History for KONA - September, 2012

Change the Weather History Date:

Sunday, September 2, 2012

  Actual Average Record
Temperature  
Mean Temperature 71 °F -  
Max Temperature 87 °F 78 °F 93 °F (1999)
Min Temperature 55 °F 57 °F 48 °F (1974)
Cooling Degree Days 6    
Growing Degree Days 21 (Base 50)    
Moisture  
Dew Point 57 °F    
Average Humidity 63    
Maximum Humidity 88    
Minimum Humidity 40    
Precipitation  
Precipitation 0.00 in - - ()
Sea Level Pressure  
Sea Level Pressure 29.96 in    
Wind  
Wind Speed 3 mph (SE)    
Max Wind Speed 12 mph    
Max Gust Speed -    
Visibility 10 miles    
Events      
Averages and records for this station are not official NWS values.
T = Trace of Precipitation, MM = Missing Value Source: NWS Daily Summary

Daily Weather History Graph

Daily Weather History Graph

Search for Another Location

Airport or City:

Trip Planner

Search our weather history database for the weather conditions in past years. The results will help you decide how hot, cold, wet, or windy it might be!

Date:

Astronomy

Sep. 02, 2012 Rise Set
Actual Time 6:31 AM CDT 7:40 PM CDT
Civil Twilight 6:02 AM CDT 8:09 PM CDT
Nautical Twilight 5:26 AM CDT 8:45 PM CDT
Astronomical Twilight 4:48 AM CDT 9:22 PM CDT
Moon 8:19 PM CDT (9/2) 8:47 AM CDT (9/2)
Length of Visible Light 14h 07m
Length of Day
13h 08m
Waning Gibbous, 95% of the Moon is Illuminated
Sep 2
Waning Gibbous
Sep 8
Last Quarter
Sep 15
New
Sep 22
First Quarter
Sep 29
Full

Hourly Weather History & Observations

Time (CDT) Temp. Heat Index Dew Point Humidity Pressure Visibility Wind Dir Wind Speed Gust Speed Precip Events Conditions
12:11 AM 64.4 °F - 53.6 °F 68% 30.04 in 10.0 mi Calm Calm - N/A   Clear
12:30 AM 60.8 °F - 51.8 °F 72% 30.04 in 10.0 mi SE 5.8 mph - N/A   Clear
12:51 AM 62.6 °F - 51.8 °F 68% 30.04 in 10.0 mi SSE 4.6 mph - N/A   Clear
1:11 AM 64.4 °F - 51.8 °F 64% 30.04 in 10.0 mi SSE 4.6 mph - N/A   Clear
1:30 AM 62.6 °F - 51.8 °F 68% 30.04 in 10.0 mi SE 3.5 mph - N/A   Clear
1:51 AM 62.6 °F - 51.8 °F 68% 30.04 in 10.0 mi Calm Calm - N/A   Clear
2:11 AM 62.6 °F - 51.8 °F 68% 30.03 in 10.0 mi Calm Calm - N/A   Clear
2:30 AM 62.6 °F - 51.8 °F 68% 30.03 in 10.0 mi Calm Calm - N/A   Clear
3:11 AM 59.0 °F - 50.0 °F 72% 30.02 in 10.0 mi Calm Calm - N/A   Clear
3:31 AM 59.0 °F - 50.0 °F 72% 30.02 in 10.0 mi Calm Calm - N/A   Clear
3:51 AM 59.0 °F - 51.8 °F 77% 30.02 in 10.0 mi Calm Calm - N/A   Clear
4:11 AM 59.0 °F - 51.8 °F 77% 30.01 in 10.0 mi Calm Calm - N/A   Clear
4:31 AM 59.0 °F - 53.6 °F 82% 30.01 in 10.0 mi Calm Calm - N/A   Clear
4:51 AM 59.0 °F - 51.8 °F 77% 30.01 in 10.0 mi Calm Calm - N/A   Clear
5:11 AM 59.0 °F - 51.8 °F 77% 30.01 in 10.0 mi Calm Calm - N/A   Clear
5:31 AM 55.4 °F - 51.8 °F 88% 30.01 in 10.0 mi NW 3.5 mph - N/A   Clear
5:51 AM 57.2 °F - 53.6 °F 88% 30.01 in 10.0 mi NW 3.5 mph - N/A   Clear
6:11 AM 57.2 °F - 51.8 °F 82% 30.00 in 10.0 mi Calm Calm - N/A   Clear
6:31 AM 57.2 °F - 51.8 °F 82% 30.01 in 10.0 mi Calm Calm - N/A   Clear
6:50 AM 57.2 °F - 51.8 °F 82% 30.01 in 10.0 mi Calm Calm - N/A   Clear
7:11 AM 59.0 °F - 51.8 °F 77% 30.01 in 10.0 mi Calm Calm - N/A   Clear
7:30 AM 59.0 °F - 51.8 °F 77% 30.01 in 10.0 mi Calm Calm - N/A   Clear
7:51 AM 60.8 °F - 51.8 °F 72% 30.02 in 10.0 mi SE 4.6 mph - N/A   Clear
8:11 AM 62.6 °F - 51.8 °F 68% 30.02 in 10.0 mi SE 5.8 mph - N/A   Clear
8:30 AM 64.4 °F - 53.6 °F 68% 30.02 in 10.0 mi SE 4.6 mph - N/A   Clear
8:51 AM 64.4 °F - 51.8 °F 64% 30.01 in 10.0 mi SE 4.6 mph - N/A   Clear
9:11 AM 68.0 °F - 53.6 °F 60% 30.01 in 10.0 mi SE 5.8 mph - N/A   Clear
9:30 AM 68.0 °F - 53.6 °F 60% 30.00 in 10.0 mi SE 6.9 mph - N/A   Clear
9:51 AM 68.0 °F - 53.6 °F 60% 30.00 in 10.0 mi ESE 8.1 mph - N/A   Clear
10:11 AM 69.8 °F - 55.4 °F 60% 30.01 in 10.0 mi SE 5.8 mph - N/A   Clear
10:30 AM 71.6 °F - 55.4 °F 57% 30.00 in 10.0 mi SE 6.9 mph - N/A   Clear
10:51 AM 71.6 °F - 53.6 °F 53% 29.99 in 10.0 mi SE 8.1 mph - N/A   Clear
11:11 AM 73.4 °F - 55.4 °F 53% 29.99 in 10.0 mi ESE 6.9 mph - N/A   Clear
11:30 AM 75.2 °F - 55.4 °F 50% 29.99 in 10.0 mi ESE 4.6 mph - N/A   Clear
11:51 AM 77.0 °F - 57.2 °F 50% 29.99 in 10.0 mi East 4.6 mph - N/A   Clear
12:11 PM 77.0 °F - 57.2 °F 50% 29.98 in 10.0 mi East 5.8 mph - N/A   Clear
12:31 PM 78.8 °F - 59.0 °F 51% 29.97 in 10.0 mi ESE 4.6 mph - N/A   Clear
12:51 PM 80.6 °F 81.1 °F 59.0 °F 48% 29.96 in 10.0 mi ESE 5.8 mph - N/A   Clear
1:10 PM 82.4 °F 82.9 °F 60.8 °F 48% 29.95 in 10.0 mi ESE 9.2 mph - N/A   Clear
1:31 PM 82.4 °F 82.9 °F 60.8 °F 48% 29.95 in 10.0 mi ESE 8.1 mph - N/A   Clear
1:51 PM 86.0 °F 86.1 °F 60.8 °F 43% 29.94 in 10.0 mi ESE 8.1 mph - N/A   Clear
2:10 PM 86.0 °F 86.6 °F 62.6 °F 45% 29.93 in 10.0 mi ESE 8.1 mph - N/A   Clear
2:31 PM 87.8 °F 88.5 °F 62.6 °F 43% 29.93 in 10.0 mi East 9.2 mph - N/A   Clear
2:51 PM 87.8 °F 88.5 °F 62.6 °F 43% 29.92 in 10.0 mi ESE 9.2 mph - N/A   Clear
3:10 PM 87.8 °F 88.5 °F 62.6 °F 43% 29.92 in 10.0 mi ESE 9.2 mph - N/A   Clear
3:31 PM 87.8 °F 88.5 °F 62.6 °F 43% 29.91 in 10.0 mi ESE 10.4 mph - N/A   Scattered Clouds
3:51 PM 86.0 °F 86.6 °F 62.6 °F 45% 29.90 in 10.0 mi ESE 8.1 mph - N/A   Scattered Clouds
4:10 PM 87.8 °F 88.5 °F 62.6 °F 43% 29.90 in 10.0 mi ESE 11.5 mph - N/A   Clear
4:31 PM 87.8 °F 88.5 °F 62.6 °F 43% 29.90 in 10.0 mi SE 9.2 mph - N/A   Clear
4:51 PM 87.8 °F 88.5 °F 62.6 °F 43% 29.90 in 10.0 mi ESE 6.9 mph - N/A   Clear
5:10 PM 87.8 °F 87.6 °F 60.8 °F 40% 29.89 in 10.0 mi South 5.8 mph - N/A   Scattered Clouds
5:31 PM 86.0 °F 86.1 °F 60.8 °F 43% 29.89 in 10.0 mi SSE 6.9 mph - N/A   Scattered Clouds
5:50 PM 87.8 °F 88.5 °F 62.6 °F 43% 29.90 in 10.0 mi Calm Calm - N/A   Scattered Clouds
6:11 PM 87.8 °F 88.5 °F 62.6 °F 43% 29.89 in 10.0 mi SSW 4.6 mph - N/A   Scattered Clouds
6:30 PM 86.0 °F 86.6 °F 62.6 °F 45% 29.89 in 10.0 mi South 3.5 mph - N/A   Clear
6:51 PM 82.4 °F 82.9 °F 60.8 °F 48% 29.89 in 10.0 mi Calm Calm - N/A   Clear
7:11 PM 80.6 °F 81.5 °F 60.8 °F 51% 29.89 in 10.0 mi Calm Calm - N/A   Clear
7:30 PM 78.8 °F - 62.6 °F 57% 29.89 in 10.0 mi Calm Calm - N/A   Clear
7:51 PM 77.0 °F - 62.6 °F 61% 29.89 in 10.0 mi Calm Calm - N/A   Clear
8:11 PM 73.4 °F - 62.6 °F 69% 29.89 in 10.0 mi SSE 3.5 mph - N/A   Clear
8:31 PM 73.4 °F - 64.4 °F 73% 29.90 in 10.0 mi Calm Calm - N/A   Clear
8:51 PM 71.6 °F - 64.4 °F 78% 29.90 in 10.0 mi ESE 4.6 mph - N/A   Clear
9:11 PM 71.6 °F - 64.4 °F 78% 29.90 in 10.0 mi SE 3.5 mph - N/A   Clear
9:31 PM 71.6 °F - 64.4 °F 78% 29.90 in 10.0 mi SE 4.6 mph - N/A   Clear
9:51 PM 71.6 °F - 64.4 °F 78% 29.91 in 10.0 mi Calm Calm - N/A   Clear
10:11 PM 71.6 °F - 66.2 °F 83% 29.92 in 10.0 mi Calm Calm - N/A   Clear
10:31 PM 71.6 °F - 66.2 °F 83% 29.91 in 10.0 mi Calm Calm - N/A   Clear
11:11 PM 71.6 °F - 64.4 °F 78% 29.91 in 10.0 mi ESE 3.5 mph - N/A   Clear
11:51 PM 71.6 °F - 64.4 °F 78% 29.89 in 10.0 mi SE 6.9 mph - N/A   Clear